QPF
0.00 0.00 0.00 0.00 0.00 0.00 0.00 0.01 0.01 0.02 0.03 0.03 0.02 0.01 0.01 0.01 0.04 0.04 0.01 0.04 0.15 0.40 0.28 0.18 0.14 0.08 0.04 0.02 0.00 0.00 0.00 0.00 0.00 0.00 0.00 0.00 0.00 0.00 0.00 0.00 0.00 0.00 0.00
0.00 0.00 0.00 0.00 0.00 0.00 0.01 0.03 0.03 0.06 0.06 0.04 0.03 0.01 0.00 0.00 0.03 0.05 0.04 0.02 0.03 0.14 0.25 0.23 0.09 0.05 0.08 0.03 0.01 0.01 0.00 0.00 0.00 0.00 0.00 0.00 0.00 0.00 0.00 0.00 0.00 0.00 0.00
0.00 0.00 0.00 0.00 0.00 0.00 0.01 0.02 0.03 0.04 0.12 0.11 0.07 0.04 0.01 0.02 0.03 0.04 0.04 0.03 0.01 0.02 0.09 0.16 0.16 0.06 0.03 0.02 0.01 0.02 0.01 0.00 0.00 0.00 0.00 0.00 0.00 0.00 0.00 0.00 0.00 0.00 0.00
0.00 0.00 0.00 0.00 0.00 0.00 0.00 0.00 0.03 0.03 0.05 0.07 0.08 0.06 0.05 0.04 0.06 0.07 0.06 0.03 0.03 0.03 0.02 0.13 0.17 0.12 0.07 0.03 0.02 0.03 0.03 0.02 0.00 0.00 0.00 0.00 0.00 0.00 0.00 0.00 0.00 0.00 0.00
0.00 0.00 0.00 0.00 0.00 0.01 0.01 0.00 0.00 0.01 0.02 0.04 0.08 0.16 0.19 0.15 0.11 0.17 0.16 0.13 0.09 0.06 0.04 0.09 0.43 0.36 0.24 0.14 0.03 0.01 0.03 0.04 0.03 0.01 0.00 0.00 0.00 0.00 0.00 0.00 0.00 0.00 0.00
0.00 0.00 0.00 0.00 0.00 0.00 0.01 0.02 0.01 0.01 0.01 0.01 0.03 0.16 0.31 0.34 0.21 0.23 0.28 0.23 0.16 0.09 0.06 0.10 0.24 0.39 0.41 0.29 0.14 0.02 0.00 0.01 0.02 0.02 0.01 0.00 0.00 0.00 0.00 0.00 0.00 0.00 0.00
0.00 0.00 0.00 0.00 0.00 0.00 0.00 0.02 0.05 0.04 0.04 0.05 0.05 0.07 0.17 0.22 0.30 0.23 0.31 0.27 0.23 0.14 0.08 0.07 0.11 0.21 0.25 0.31 0.31 0.16 0.01 0.01 0.02 0.03 0.02 0.01 0.00 0.00 0.00 0.00 0.00 0.00 0.00
0.00 0.00 0.00 0.00 0.00 0.00 0.00 0.00 0.01 0.06 0.06 0.07 0.06 0.07 0.09 0.08 0.17 0.11 0.17 0.20 0.18 0.11 0.06 0.03 0.02 0.03 0.10 0.23 0.22 0.16 0.12 0.03 0.01 0.01 0.01 0.01 0.00 0.00 0.00 0.00 0.00 0.00 0.00
0.00 0.00 0.00 0.00 0.00 0.00 0.00 0.00 0.00 0.01 0.04 0.04 0.05 0.05 0.05 0.05 0.07 0.07 0.06 0.09 0.13 0.10 0.04 0.01 0.01 0.01 0.02 0.07 0.20 0.24 0.19 0.23 0.16 0.06 0.03 0.01 0.01 0.00 0.00 0.00 0.00 0.00 0.00
0.00 0.00 0.00 0.00 0.00 0.00 0.00 0.00 0.00 0.00 0.01 0.01 0.01 0.02 0.03 0.02 0.02 0.04 0.05 0.05 0.05 0.04 0.02 0.01 0.01 0.01 0.01 0.03 0.08 0.15 0.25 0.27 0.23 0.12 0.05 0.04 0.00 0.00 0.00 0.00 0.00 0.00 0.00
0.00 0.00 0.00 0.00 0.00 0.00 0.00 0.00 0.00 0.00 0.00 0.01 0.00 0.01 0.02 0.01 0.00 0.00 0.02 0.04 0.04 0.02 0.01 0.00 0.01 0.03 0.01 0.02 0.05 0.09 0.17 0.22 0.22 0.18 0.12 0.11 0.08 0.01 0.00 0.00 0.00 0.00 0.00
0.00 0.00 0.00 0.00 0.00 0.00 0.00 0.00 0.00 0.00 0.00 0.00 0.00 0.00 0.00 0.00 0.00 0.00 0.00 0.01 0.01 0.00 0.00 0.00 0.00 0.01 0.01 0.01 0.01 0.04 0.07 0.10 0.15 0.18 0.17 0.15 0.16 0.14 0.04 0.00 0.00 0.00 0.00
0.00 0.00 0.00 0.00 0.00 0.00 0.00 0.00 0.00 0.00 0.00 0.00 0.00 0.00 0.00 0.00 0.00 0.00 0.00 0.00 0.00 0.00 0.00 0.00 0.00 0.00 0.00 0.00 0.00 0.01 0.02 0.02 0.05 0.12 0.17 0.19 0.17 0.16 0.10 0.03 0.00 0.00 0.00
0.00 0.00 0.00 0.00 0.00 0.00 0.00 0.00 0.01 0.01 0.01 0.01 0.01 0.01 0.00 0.00 0.00 0.00 0.00 0.00 0.00 0.00 0.00 0.00 0.00 0.00 0.00 0.00 0.00 0.00 0.00 0.00 0.01 0.04 0.09 0.12 0.12 0.10 0.08 0.06 0.03 0.03 0.02
0.00 0.00 0.00 0.00 0.00 0.00 0.00 0.00 0.01 0.01 0.02 0.02 0.03 0.02 0.02 0.02 0.02 0.00 0.00 0.00 0.00 0.00 0.00 0.00 0.00 0.00 0.00 0.00 0.00 0.00 0.00 0.00 0.00 0.00 0.02 0.06 0.07 0.07 0.07 0.08 0.08 0.08 0.07
0.00 0.00 0.00 0.00 0.00 0.00 0.00 0.00 0.00 0.00 0.00 0.00 0.00 0.01 0.00 0.01 0.01 0.00 0.00 0.00 0.00 0.00 0.00 0.00 0.00 0.00 0.00 0.00 0.00 0.00 0.00 0.00 0.00 0.00 0.00 0.02 0.05 0.06 0.07 0.07 0.09 0.10 0.08
0.00 0.00 0.00 0.00 0.00 0.00 0.00 0.00 0.00 0.00 0.00 0.00 0.00 0.00 0.00 0.00 0.00 0.00 0.00 0.00 0.00 0.00 0.00 0.00 0.01 0.01 0.01 0.00 0.00 0.00 0.00 0.00 0.00 0.00 0.00 0.00 0.01 0.05 0.11 0.09 0.08 0.09 0.09
0.00 0.00 0.00 0.00 0.00 0.00 0.00 0.00 0.00 0.00 0.00 0.00 0.00 0.00 0.00 0.00 0.00 0.00 0.00 0.00 0.00 0.00 0.00 0.01 0.01 0.01 0.01 0.01 0.00 0.00 0.00 0.00 0.00 0.00 0.00 0.00 0.00 0.00 0.01 0.04 0.07 0.08 0.08
0.00 0.00 0.00 0.00 0.00 0.00 0.00 0.00 0.00 0.00 0.00 0.00 0.00 0.00 0.00 0.00 0.00 0.00 0.00 0.00 0.00 0.01 0.00 0.01 0.01 0.01 0.01 0.01 0.01 0.00 0.00 0.00 0.00 0.00 0.00 0.00 0.00 0.00 0.00 0.00 0.00 0.01 0.03
0.00 0.00 0.00 0.00 0.00 0.00 0.00 0.00 0.00 0.00 0.00 0.00 0.00 0.01 0.00 0.00 0.00 0.00 0.00 0.00 0.00 0.01 0.01 0.01 0.01 0.01 0.01 0.01 0.00 0.01 0.00 0.00 0.00 0.00 0.00 0.00 0.00 0.00 0.00 0.00 0.00 0.00 0.00
0.00 0.00 0.00 0.00 0.00 0.00 0.00 0.00 0.00 0.00 0.00 0.00 0.00 0.00 0.00 0.01 0.01 0.01 0.01 0.01 0.01 0.01 0.01 0.01 0.01 0.01 0.01 0.01 0.00 0.00 0.00 0.00 0.00 0.00 0.00 0.00 0.00 0.00 0.00 0.00 0.00 0.00 0.00
0.00 0.00 0.00 0.00 0.00 0.00 0.00 0.00 0.00 0.00 0.00 0.00 0.00 0.00 0.00 0.00 0.01 0.01 0.00 0.01 0.01 0.01 0.01 0.01 0.01 0.01 0.02 0.02 0.02 0.01 0.01 0.01 0.00 0.01 0.00 0.00 0.00 0.00 0.00 0.00 0.00 0.00 0.00
0.00 0.00 0.00 0.00 0.00 0.00 0.00 0.00 0.00 0.00 0.00 0.00 0.00 0.00 0.00 0.00 0.00 0.01 0.01 0.01 0.00 0.00 0.01 0.01 0.01 0.01 0.01 0.01 0.02 0.03 0.03 0.02 0.02 0.01 0.01 0.01 0.00 0.00 0.00 0.00 0.00 0.00 0.00
0.00 0.00 0.00 0.00 0.00 0.00 0.00 0.00 0.00 0.00 0.00 0.00 0.00 0.00 0.00 0.00 0.00 0.00 0.00 0.00 0.00 0.00 0.00 0.01 0.01 0.01 0.01 0.01 0.01 0.01 0.02 0.03 0.02 0.01 0.01 0.01 0.01 0.00 0.01 0.00 0.00 0.00 0.00
0.00 0.00 0.00 0.00 0.00 0.00 0.00 0.00 0.00 0.00 0.00 0.00 0.00 0.00 0.00 0.00 0.00 0.00 0.00 0.00 0.00 0.00 0.00 0.00 0.01 0.01 0.01 0.01 0.01 0.01 0.01 0.01 0.01 0.01 0.01 0.01 0.01 0.01 0.01 0.01 0.00 0.01 0.00
0.00 0.00 0.00 0.00 0.00 0.00 0.00 0.00 0.00 0.00 0.00 0.00 0.00 0.00 0.00 0.00 0.00 0.00 0.00 0.00 0.00 0.00 0.00 0.00 0.00 0.00 0.00 0.01 0.01 0.00 0.00 0.00 0.00 0.00 0.01 0.01 0.01 0.01 0.01 0.01 0.01 0.01 0.01
MSLP
1024.86 1024.21 1023.53 1022.80 1022.23 1021.59 1020.75 1019.84 1019.04 1017.95 1016.66 1015.51 1014.47 1013.70 1012.59 1011.69 1010.84 1009.59 1007.67 1007.39 1007.19 1007.69 1007.97 1007.50 1009.13 1010.02 1009.81 1009.98 1010.17 1010.66 1010.94 1011.11 1011.20 1011.67 1012.77 1013.91 1014.69 1014.98 1015.54 1016.48 1017.17 1017.82 1018.29
1025.09 1024.33 1023.58 1022.83 1022.32 1021.59 1020.53 1019.70 1018.88 1018.05 1016.85 1015.85 1014.96 1013.92 1013.02 1011.99 1010.98 1009.50 1007.96 1005.55 1006.00 1006.52 1006.31 1007.14 1007.17 1009.31 1009.26 1009.05 1009.19 1009.57 1010.00 1010.36 1010.67 1011.21 1012.23 1012.98 1013.41 1014.04 1014.55 1015.19 1015.74 1016.42 1016.86
1025.03 1024.36 1023.62 1023.05 1022.58 1021.68 1020.83 1020.01 1019.12 1018.19 1016.97 1016.00 1015.20 1014.44 1013.59 1012.46 1010.95 1009.83 1008.67 1007.16 1005.33 1005.07 1005.31 1006.07 1005.26 1005.86 1007.43 1008.03 1008.22 1008.53 1008.96 1009.54 1010.12 1010.38 1011.34 1012.40 1012.89 1013.51 1014.11 1014.64 1014.93 1015.34 1015.79
1025.06 1024.59 1023.94 1023.45 1022.90 1021.83 1020.96 1020.15 1019.36 1018.54 1017.42 1016.46 1015.44 1014.77 1014.03 1013.23 1011.74 1010.60 1009.38 1007.02 1005.37 1004.23 1005.10 1005.45 1005.02 1005.16 1005.78 1006.52 1007.20 1007.66 1008.00 1008.38 1009.16 1009.72 1009.98 1011.52 1012.06 1012.70 1013.24 1013.66 1014.32 1014.60 1014.53
1025.31 1024.77 1024.46 1023.95 1023.09 1021.99 1021.08 1020.27 1019.37 1018.58 1017.75 1016.75 1015.63 1015.17 1014.09 1013.48 1012.87 1011.18 1009.51 1008.49 1007.24 1004.26 1004.49 1005.33 1005.73 1005.33 1005.09 1006.00 1005.99 1006.43 1007.03 1007.50 1007.91 1008.86 1009.14 1010.16 1011.12 1011.78 1011.90 1012.31 1012.66 1013.32 1013.93
1025.52 1025.15 1024.83 1024.14 1023.08 1022.06 1021.21 1020.47 1019.64 1018.78 1018.02 1017.29 1016.28 1015.06 1014.96 1014.35 1013.50 1011.83 1010.30 1010.13 1009.29 1006.00 1005.19 1005.80 1006.75 1005.99 1005.93 1005.72 1006.17 1005.58 1005.43 1006.01 1006.49 1007.36 1008.02 1008.31 1009.28 1010.04 1010.59 1011.06 1011.72 1012.39 1012.96
1025.82 1025.68 1025.04 1024.15 1023.28 1022.30 1021.40 1020.62 1019.77 1018.96 1018.29 1017.76 1017.11 1016.39 1015.88 1014.59 1013.83 1011.81 1011.78 1011.21 1010.73 1008.97 1007.63 1007.61 1007.18 1006.16 1006.43 1006.18 1005.59 1005.85 1005.00 1005.19 1005.16 1005.92 1006.29 1006.96 1007.57 1008.53 1009.14 1009.69 1010.58 1010.52 1010.57
1026.17 1025.86 1025.20 1024.46 1023.34 1022.52 1021.65 1020.84 1020.06 1019.35 1018.60 1017.92 1017.45 1016.69 1016.02 1015.08 1014.30 1013.43 1012.63 1012.65 1011.55 1009.95 1009.60 1008.89 1008.09 1007.55 1007.38 1006.54 1005.83 1005.74 1004.86 1004.94 1005.75 1005.56 1005.54 1006.13 1006.59 1007.34 1007.85 1008.18 1008.71 1009.58 1010.36
1026.42 1026.08 1025.47 1024.73 1023.69 1022.82 1022.18 1021.52 1020.91 1020.05 1019.14 1018.33 1017.78 1017.17 1016.06 1015.51 1015.09 1014.38 1013.63 1012.36 1011.48 1011.51 1010.74 1009.44 1008.55 1008.38 1007.79 1006.50 1005.90 1005.97 1005.60 1006.44 1005.92 1006.31 1005.89 1006.02 1006.31 1006.70 1007.19 1007.88 1008.55 1009.36 1010.21
1026.62 1026.16 1025.56 1025.02 1024.31 1023.41 1022.75 1022.23 1021.68 1020.77 1019.75 1018.98 1018.04 1017.18 1016.88 1015.81 1014.57 1013.12 1013.05 1012.84 1012.50 1012.18 1011.63 1010.39 1009.98 1009.73 1008.50 1007.05 1007.44 1007.49 1006.98 1006.99 1005.97 1006.63 1006.30 1006.05 1006.41 1006.43 1006.44 1006.44 1007.36 1007.97 1009.03
1026.77 1026.08 1025.51 1025.04 1024.53 1024.05 1023.46 1022.63 1021.92 1021.08 1020.25 1019.36 1018.69 1017.75 1016.65 1015.99 1015.24 1014.55 1014.32 1013.89 1013.46 1012.87 1012.39 1011.47 1010.35 1009.25 1007.75 1008.55 1008.71 1007.44 1007.61 1007.67 1007.47 1007.60 1007.22 1006.84 1006.79 1006.65 1006.51 1006.28 1006.28 1006.92 1007.61
1026.68 1026.01 1025.48 1025.05 1024.63 1024.34 1023.65 1022.88 1022.03 1021.11 1020.32 1019.66 1018.70 1017.85 1017.44 1016.94 1016.65 1015.65 1015.21 1014.59 1013.99 1014.25 1014.05 1013.00 1011.35 1010.61 1008.29 1009.52 1009.17 1008.34 1008.71 1008.89 1008.31 1008.13 1007.47 1007.60 1007.42 1007.36 1007.07 1006.58 1006.30 1006.27 1006.60
1026.59 1025.93 1025.48 1025.11 1024.87 1024.54 1023.74 1022.97 1022.21 1021.37 1020.54 1019.78 1019.33 1018.70 1017.90 1017.26 1016.39 1015.34 1015.42 1014.74 1014.52 1014.47 1013.96 1012.72 1011.67 1010.56 1009.49 1010.15 1010.32 1009.42 1008.02 1008.55 1008.51 1008.44 1008.14 1008.17 1008.29 1008.22 1007.57 1007.03 1006.50 1006.49 1006.53
1026.79 1026.12 1025.69 1025.34 1025.05 1024.67 1023.99 1023.26 1022.50 1021.80 1021.05 1020.23 1019.64 1019.02 1018.01 1017.13 1016.45 1016.26 1015.84 1015.05 1015.02 1014.40 1013.95 1012.89 1011.99 1011.09 1010.63 1011.17 1011.85 1010.19 1008.77 1009.72 1010.16 1009.78 1009.29 1008.79 1008.37 1008.29 1008.11 1007.28 1007.29 1007.17 1007.09
1027.36 1026.92 1026.35 1025.68 1025.10 1024.59 1024.19 1023.65 1022.93 1022.45 1022.08 1021.53 1020.82 1019.96 1019.49 1018.95 1018.16 1017.27 1016.66 1016.33 1015.89 1015.23 1014.52 1013.33 1012.23 1011.75 1011.64 1011.71 1011.68 1010.27 1009.35 1010.20 1010.32 1010.29 1010.19 1009.68 1009.01 1008.59 1008.53 1008.19 1007.76 1007.57 1007.88
1028.04 1027.41 1026.73 1026.11 1025.38 1024.71 1024.27 1023.71 1023.29 1022.87 1022.14 1021.65 1021.23 1020.76 1019.95 1019.13 1017.89 1017.45 1017.21 1016.71 1016.38 1015.72 1014.52 1013.53 1012.86 1012.82 1012.50 1012.08 1011.76 1010.78 1009.78 1010.63 1010.78 1010.56 1010.49 1010.09 1009.83 1009.64 1009.48 1008.88 1008.91 1008.53 1008.62
1028.49 1027.79 1027.23 1026.80 1026.09 1025.37 1024.69 1024.02 1023.28 1022.82 1022.37 1021.81 1021.30 1020.61 1020.10 1019.33 1018.64 1018.06 1017.80 1017.48 1017.21 1016.14 1015.08 1014.48 1014.14 1013.74 1013.19 1013.21 1012.26 1011.78 1011.11 1011.36 1011.20 1010.43 1010.73 1010.32 1009.91 1009.73 1009.25 1009.05 1009.00 1009.08 1008.85
1028.67 1028.39 1028.06 1027.48 1026.85 1026.09 1025.33 1024.70 1024.11 1023.43 1022.70 1022.32 1021.76 1021.23 1020.66 1020.14 1019.73 1019.34 1019.32 1018.48 1017.42 1015.91 1015.86 1015.33 1014.66 1014.25 1013.86 1013.26 1013.06 1012.51 1012.60 1011.88 1011.97 1011.54 1011.32 1010.43 1010.40 1010.08 1010.12 1009.82 1009.56 1009.67 1009.56
1028.86 1028.84 1028.39 1027.90 1027.38 1026.77 1026.02 1025.29 1024.80 1024.32 1023.75 1023.25 1022.67 1022.20 1022.01 1021.46 1020.85 1020.11 1019.49 1018.37 1017.61 1017.13 1016.66 1016.11 1015.61 1014.99 1014.47 1013.80 1013.70 1013.17 1012.73 1012.58 1012.38 1011.98 1011.49 1010.94 1010.73 1010.39 1010.68 1010.27 1010.16 1009.87 1009.61
1029.17 1028.99 1028.58 1028.14 1027.66 1027.08 1026.64 1026.09 1025.57 1024.97 1024.43 1024.08 1023.52 1022.87 1022.34 1021.59 1021.00 1020.51 1020.06 1019.23 1018.87 1018.35 1017.86 1017.21 1016.35 1015.52 1015.27 1014.80 1014.02 1013.45 1012.95 1012.77 1012.38 1012.04 1011.37 1011.03 1010.81 1010.52 1010.60 1010.67 1010.34 1009.84 1009.41
1029.07 1028.78 1028.55 1028.21 1027.99 1027.57 1027.10 1026.72 1026.37 1025.81 1025.24 1024.71 1024.32 1024.04 1023.59 1022.63 1021.86 1021.19 1020.63 1020.30 1020.20 1019.39 1018.46 1017.85 1017.11 1016.11 1015.58 1015.20 1014.58 1013.77 1013.48 1013.11 1012.61 1012.24 1011.49 1011.34 1010.98 1010.53 1010.42 1010.36 1010.48 1010.18 1009.61
1028.95 1028.59 1028.40 1028.21 1028.14 1027.98 1027.66 1027.31 1026.91 1026.59 1026.16 1025.60 1025.05 1024.53 1024.11 1023.48 1022.98 1022.44 1021.90 1021.37 1020.72 1019.91 1019.09 1018.24 1017.52 1016.95 1016.66 1016.01 1015.03 1014.41 1013.74 1013.36 1012.96 1012.21 1011.73 1011.51 1011.25 1010.92 1010.20 1010.57 1010.22 1010.12 1009.66
1028.90 1028.65 1028.27 1028.02 1028.09 1028.01 1027.85 1027.68 1027.37 1027.05 1026.75 1026.34 1025.79 1025.15 1024.64 1024.25 1023.80 1023.25 1022.64 1022.11 1021.40 1020.49 1019.49 1018.64 1018.03 1017.34 1016.66 1016.14 1015.68 1015.21 1014.66 1014.28 1013.69 1012.86 1012.19 1011.59 1011.38 1011.17 1010.72 1010.05 1009.76 1009.82 1009.68
1029.21 1029.02 1028.69 1028.34 1028.04 1028.00 1027.95 1027.77 1027.63 1027.45 1027.15 1026.70 1026.34 1025.90 1025.37 1024.82 1024.21 1023.72 1023.19 1022.54 1021.78 1020.98 1020.27 1019.53 1018.75 1018.02 1017.23 1016.53 1016.27 1015.69 1014.91 1014.64 1013.84 1013.14 1012.59 1012.04 1011.39 1010.85 1010.52 1010.07 1009.49 1009.32 1009.14
1029.42 1029.27 1029.08 1028.83 1028.55 1028.32 1028.17 1027.92 1027.75 1027.66 1027.40 1027.09 1026.62 1026.32 1025.97 1025.54 1024.93 1024.26 1023.50 1022.89 1022.17 1021.23 1020.36 1019.76 1019.19 1018.65 1018.15 1017.40 1016.70 1016.08 1015.35 1014.73 1014.08 1013.50 1012.66 1012.02 1011.05 1010.48 1010.39 1009.79 1008.95 1008.50 1008.85
1029.58 1029.54 1029.42 1029.24 1029.05 1028.85 1028.67 1028.34 1028.03 1027.83 1027.60 1027.37 1027.07 1026.76 1026.34 1025.85 1025.44 1025.08 1024.46 1023.77 1022.94 1021.98 1021.28 1020.45 1019.73 1019.15 1018.36 1017.59 1017.13 1016.53 1015.55 1014.72 1014.22 1013.34 1012.75 1011.48 1010.72 1010.32 1009.58 1009.01 1008.84 1008.31 1008.26
Thickness
5378 5378 5378 5378 5377 5379 5384 5392 5398 5406 5418 5430 5442 5456 5478 5495 5509 5532 5566 5579 5593 5597 5603 5621 5618 5618 5629 5638 5646 5651 5656 5661 5667 5672 5671 5668 5667 5671 5671 5667 5664 5662 5663
5367 5369 5370 5371 5370 5371 5377 5383 5388 5391 5402 5413 5426 5439 5456 5476 5493 5513 5539 5581 5589 5590 5607 5609 5616 5611 5619 5631 5641 5646 5653 5659 5663 5662 5662 5663 5669 5671 5671 5669 5668 5666 5667
5360 5360 5362 5361 5360 5364 5364 5369 5375 5382 5392 5400 5411 5424 5438 5455 5480 5497 5515 5546 5580 5595 5603 5603 5620 5625 5624 5627 5636 5645 5650 5654 5656 5658 5656 5655 5659 5661 5663 5665 5667 5668 5669
5353 5350 5351 5351 5350 5355 5356 5357 5361 5370 5380 5388 5400 5411 5423 5436 5461 5480 5496 5529 5563 5588 5592 5596 5611 5620 5625 5628 5632 5639 5648 5650 5649 5650 5656 5649 5650 5655 5657 5659 5659 5666 5674
5347 5344 5341 5340 5342 5347 5349 5349 5354 5361 5369 5378 5392 5401 5414 5424 5438 5461 5484 5503 5528 5574 5582 5583 5591 5604 5612 5615 5625 5636 5639 5643 5645 5641 5647 5647 5644 5646 5654 5664 5665 5666 5665
5340 5337 5333 5334 5338 5342 5342 5342 5344 5351 5361 5369 5381 5394 5400 5411 5424 5445 5467 5477 5498 5542 5561 5567 5567 5587 5593 5602 5607 5622 5640 5642 5645 5641 5643 5648 5650 5654 5657 5660 5660 5656 5656
5332 5328 5328 5330 5333 5336 5337 5337 5339 5344 5352 5358 5366 5377 5386 5400 5413 5437 5439 5460 5469 5500 5523 5537 5551 5576 5579 5588 5598 5607 5626 5633 5647 5649 5648 5648 5656 5657 5663 5660 5656 5663 5671
5324 5321 5323 5324 5328 5332 5333 5334 5333 5338 5343 5350 5360 5368 5377 5387 5403 5413 5426 5443 5456 5480 5492 5514 5533 5552 5559 5570 5583 5594 5615 5624 5625 5635 5643 5648 5653 5658 5657 5662 5662 5660 5656
5317 5314 5314 5318 5322 5324 5326 5325 5325 5327 5332 5340 5350 5358 5372 5377 5390 5404 5416 5438 5450 5454 5472 5496 5517 5533 5544 5564 5573 5579 5592 5589 5606 5610 5623 5632 5639 5645 5648 5647 5639 5641 5636
5312 5311 5310 5308 5311 5315 5317 5318 5317 5320 5324 5330 5341 5352 5358 5372 5388 5409 5418 5429 5440 5444 5453 5476 5495 5508 5526 5546 5546 5551 5562 5570 5590 5595 5606 5619 5624 5631 5639 5646 5644 5643 5642
5307 5309 5309 5308 5306 5304 5307 5311 5314 5316 5319 5323 5328 5340 5356 5364 5375 5390 5399 5406 5418 5428 5439 5459 5480 5499 5525 5520 5524 5540 5546 5553 5562 5571 5582 5595 5605 5617 5626 5634 5640 5642 5639
5304 5306 5307 5306 5305 5302 5303 5306 5311 5315 5318 5322 5328 5338 5343 5351 5360 5375 5387 5399 5405 5409 5416 5435 5460 5475 5506 5501 5510 5522 5524 5529 5541 5551 5562 5569 5581 5590 5602 5613 5623 5630 5634
5299 5302 5302 5302 5300 5299 5303 5304 5307 5313 5319 5322 5323 5328 5337 5347 5358 5371 5377 5386 5391 5396 5407 5424 5443 5463 5482 5484 5488 5504 5523 5520 5526 5534 5543 5550 5557 5566 5576 5591 5605 5609 5615
5294 5294 5295 5295 5294 5294 5297 5301 5304 5308 5313 5319 5322 5325 5334 5342 5352 5356 5363 5375 5379 5385 5396 5413 5430 5446 5458 5461 5461 5486 5505 5497 5499 5507 5518 5529 5539 5550 5559 5574 5583 5589 5594
5286 5284 5284 5287 5290 5291 5292 5293 5298 5300 5301 5304 5310 5317 5320 5325 5332 5341 5350 5353 5360 5369 5382 5400 5417 5428 5437 5444 5448 5472 5489 5482 5485 5491 5498 5508 5521 5531 5539 5548 5560 5569 5574
5275 5277 5278 5279 5282 5286 5286 5288 5290 5292 5297 5301 5303 5306 5313 5321 5333 5333 5336 5342 5348 5358 5374 5388 5401 5408 5417 5427 5434 5453 5471 5467 5470 5477 5484 5491 5499 5507 5514 5526 5531 5541 5550
5269 5270 5271 5270 5272 5275 5278 5281 5284 5287 5291 5295 5299 5305 5307 5312 5317 5323 5327 5331 5334 5347 5361 5371 5380 5389 5399 5403 5417 5427 5443 5448 5454 5466 5470 5479 5487 5491 5500 5508 5515 5520 5528
5264 5262 5260 5261 5263 5266 5269 5272 5275 5278 5282 5283 5288 5293 5298 5303 5305 5309 5309 5318 5326 5342 5347 5353 5364 5372 5380 5390 5397 5409 5416 5429 5431 5442 5448 5462 5467 5474 5478 5485 5492 5496 5504
5261 5255 5255 5255 5255 5257 5261 5264 5265 5266 5270 5271 5274 5277 5277 5283 5289 5296 5299 5308 5316 5322 5329 5338 5344 5354 5362 5374 5380 5391 5400 5408 5415 5422 5431 5440 5446 5456 5457 5466 5473 5480 5486
5257 5252 5251 5250 5250 5251 5251 5253 5254 5257 5260 5260 5262 5265 5268 5274 5277 5282 5285 5293 5297 5304 5311 5318 5329 5339 5344 5353 5365 5374 5383 5390 5399 5405 5416 5423 5429 5437 5442 5446 5454 5465 5472
5257 5253 5249 5247 5244 5244 5244 5244 5244 5246 5249 5251 5251 5250 5250 5256 5262 5268 5273 5276 5278 5286 5295 5302 5310 5322 5330 5337 5345 5358 5363 5370 5381 5387 5398 5402 5411 5421 5426 5430 5433 5441 5452
5256 5253 5249 5245 5241 5238 5236 5236 5235 5235 5236 5238 5239 5241 5241 5243 5245 5248 5252 5257 5262 5270 5278 5286 5294 5302 5308 5315 5328 5337 5346 5353 5360 5370 5378 5385 5390 5398 5410 5409 5415 5419 5429
5254 5250 5247 5245 5239 5235 5232 5230 5229 5228 5227 5227 5229 5231 5231 5231 5232 5235 5238 5241 5246 5253 5262 5271 5278 5286 5293 5300 5307 5315 5323 5330 5337 5346 5356 5366 5372 5377 5385 5395 5400 5401 5405
5248 5243 5240 5238 5236 5232 5228 5225 5223 5221 5221 5221 5220 5220 5221 5222 5225 5226 5228 5231 5235 5240 5245 5252 5260 5267 5276 5285 5289 5297 5305 5311 5320 5329 5336 5344 5354 5361 5366 5373 5380 5385 5389
5243 5236 5232 5229 5227 5225 5222 5221 5218 5216 5215 5215 5216 5214 5213 5212 5214 5218 5222 5225 5228 5234 5240 5244 5249 5254 5260 5267 5275 5282 5290 5297 5305 5312 5321 5327 5338 5346 5347 5354 5364 5371 5371
5238 5229 5225 5221 5218 5215 5213 5212 5211 5210 5209 5208 5208 5208 5208 5208 5207 5207 5209 5214 5220 5226 5230 5236 5241 5246 5253 5259 5264 5270 5278 5286 5292 5300 5306 5317 5324 5329 5337 5342 5345 5351 5356